Regional Weather Roundup
Issued by NWS New Orleans/Baton Rouge, LA

Home | Current Version | Previous Version | Graphics & Text | Print | Product List | Glossary On
Versions: 1 2 3 4 5 6 7 8 9 10 11 12 13 14 15 16 17 18 19 20 21 22 23 24 25 26 27 28 29 30 31 32 33 34 35 36 37 38 39 40 41 42 43 44 45 46 47 48 49 50
801
ASUS44 KLIX 262305
RWRLIX
NEW ORLEANS REGIONAL WEATHER ROUNDUP
NATIONAL WEATHER SERVICE NEW ORLEANS LA
500 PM CST THU FEB 26 2015

NOTE: "FAIR" INDICATES FEW OR NO CLOUDS BELOW 12,000 FEET WITH NO
      SIGNIFICANT WEATHER AND/OR OBSTRUCTIONS TO VISIBILITY.
      SKY/WX - SKY CONDITION AND SIGNIFICANT WEATHER.
      TMP - AIR TEMPERATURE.     DP    - DEWPOINT TEMPERATURE.
      RH  - RELATIVE HUMIDITY.   PRES  - PRESSURE.
      HI  - HEAT INDEX.          WCI   - WIND CHILL INDEX.

*  THESE STATIONS ARE NOT NWS OR FAA STATIONS AND ARE NOT UNDER
   NWS QUALITY CONTROL.

LAZ038-040-048-061>063-065>067-069-270000-
SOUTHEAST LOUISIANA

CITY           SKY/WX    TMP DP  RH WIND       PRES   REMARKS
N.O. AUDUBON     N/A     49  39  68 MISG        N/A
N.O. INTL ARPT PTSUNNY   48  34  58 N14       30.12R
N.O. LAKEFRONT PTSUNNY   50  35  56 N16       30.13R
SLIDELL        MOSUNNY   48  33  56 N13       30.11R
BATON ROUGE    MOSUNNY   51  32  48 N9        30.14R
BOOTHVILLE     CLOUDY    47  39  74 N8        30.10R
BELLE CHASSE   PTSUNNY   48  33  56 N9G20     30.11R
BOGALUSA*        N/A     51  33  49 NE8       30.13R
GALLIANO*      CLEAR     49  38  64 MISG      30.12R
NEW ROADS*       N/A     47  33  57 N13G20    30.17R
GONZALES*        N/A     50  32  50 N6        30.13R
HAMMOND*       SUNNY     52  30  43 N8        30.14R
HOUMA*         NOT AVBL
PORT FOURCHON* CLOUDY    46  37  71 N14G24    30.14R

$$

MSZ070-080>082-270000-
SOUTHERN MISSISSIPPI

CITY           SKY/WX    TMP DP  RH WIND       PRES   REMARKS
MCCOMB         MOSUNNY   48  32  53 N14       30.14R
GULFPORT       MOSUNNY   48  34  58 N13       30.09R
BILOXI         MOSUNNY   48  35  59 N12       30.09R
PASCAGOULA     PTCLDY    48  35  60 N9        30.09R

$$

COASTAL OBSERVATIONS
LAKE AND NEARSHORE STATIONS

STATION/POSITION TIME  TEMP    WIND        PRES    WAVE
                       AIR SEA DIR/SP/G            HT/PER
                 (UTC) (F)     (DEG/KT/KT) (MB)    (FT/S)
PASCAGOULA       2300   47     350/  7/ 13 1018.3
WAVELAND YACHT   2300   47 51  360/ 14/ 15 1018.8
GRAND ISLE       2300   47 53   20/ 10/ 15 1019.8
SOUTHWEST PASS   2300   49 49   20/ 16/ 20 1019.3
NEW CANAL        2300   47     360/ 13/ 17 1020.0
SHELL BEACH      2300   47 51  340/ 14/ 15 1019.2

OFFSHORE STATIONS

STATION/POSITION TIME  TEMP    WIND        PRES    WAVE
                       AIR SEA DIR/SP/G            HT/PER
                 (UTC) (F)     (DEG/KT/KT) (MB)    (FT/S)
64 S DAUPHIN ISL 2238   49 64   10/ 14/ 17 1018.4    4/ 5

$$




USA.gov is the U.S. government's official web portal to all federal, state and local government web resources and services.